Flag for Turkey Weather past 2 weeks in Izmir, Turkey

Now
68 °F

Passing clouds.


Feels Like: 68 °F
Forecast: 48 / 79 °F
Wind: 12 mph from Northeast

Location: Izmir / Adnan Menderes

Current Time: Apr 26, 2015 at 7:43:04 PM

Latest Report: Apr 26, 2015 at 6:50 PM


Visibility: N/A

Pressure: 29.98 "Hg

Humidity: 53%

Dew point: 50 °F

Location of IzmirLocation

Historic Weather in Izmir — Graph

°F

Izmir temperature yesterday

Maximum temperature yesterday: 68 °F (at 1:20 PM)
Minimum temperature yesterday: 43 °F (at 5:50 AM)
Average temperature yesterday: 55 °F

Past Weeks' High & Low Weather Summary

 TemperatureHumidityPressure
High73 °F (Apr 14, 1:50 PM)94% (Apr 18, 12:50 AM)30.24 "Hg (Apr 18, 12:50 AM)
Low34 °F (Apr 24, 5:20 AM)21% (Apr 24, 1:20 PM)29.83 "Hg (Apr 20, 7:20 PM)
Average57 °F61%30.07 "Hg
* Reported Apr 11 6:20 PM — Apr 26 6:20 PM, Izmir, Weather by CustomWeather, © 2015

Note: Actual official high and low records may vary slightly from our data, if they occured in-between our weather recording intervals... More about our weather records

Advertising

Izmir weather history for previous 24 hours

 ConditionsComfort  
Time TempWeatherWind HumidityBarometerVisibility
6:20 PM
Sun, Apr 26
70 °FPassing clouds.12 mph50%29.98 "HgN/A
5:50 PM70 °FPassing clouds.12 mph46%29.98 "HgN/A
5:20 PM70 °FScattered clouds.13 mph50%29.98 "HgN/A
4:50 PM70 °FScattered clouds.14 mph46%29.98 "HgN/A
4:20 PM72 °FScattered clouds.14 mph44%29.98 "HgN/A
3:50 PM72 °FScattered clouds.7 mph44%29.98 "HgN/A
3:20 PM72 °FScattered clouds.9 mph41%29.98 "HgN/A
2:50 PM73 °FScattered clouds.7 mph38%29.98 "HgN/A
2:20 PM72 °FScattered clouds.3 mph47%30.01 "HgN/A
1:50 PM70 °FScattered clouds.8 mph50%30.01 "HgN/A
1:20 PM70 °FScattered clouds.3 mph50%30.01 "HgN/A
12:50 PM68 °FScattered clouds.3 mph49%30.04 "HgN/A
12:20 PM68 °FPassing clouds.5 mph53%30.04 "HgN/A
11:50 AM66 °FPassing clouds.3 mph52%30.04 "HgN/A
11:20 AM66 °FPassing clouds.3 mph56%30.04 "HgN/A
10:50 AM64 °FPassing clouds.3 mph52%30.04 "HgN/A
10:20 AM63 °FPassing clouds.3 mph59%30.04 "HgN/A
9:50 AM61 °FPassing clouds.3 mph63%30.07 "HgN/A
9:20 AM61 °FPassing clouds.2 mph59%30.07 "HgN/A
8:50 AM57 °FPassing clouds.2 mph77%30.07 "HgN/A
8:20 AM54 °FPassing clouds.2 mph82%30.07 "HgN/A
7:50 AM50 °FScattered clouds.1 mph88%30.07 "HgN/A
7:20 AM48 °FPassing clouds.No wind87%30.07 "HgN/A
6:50 AM48 °FPassing clouds.No wind94%30.04 "HgN/A
6:20 AM46 °FPassing clouds.No wind93%30.04 "HgN/A
5:50 AM46 °FPassing clouds.1 mph93%30.04 "HgN/A
5:20 AM48 °FPartly cloudy.No wind94%30.04 "HgN/A
4:50 AM48 °FPartly cloudy.5 mph87%30.04 "HgN/A
4:20 AM50 °FPartly cloudy.3 mph88%30.04 "HgN/A
3:50 AM52 °FPartly cloudy.No wind82%30.04 "HgN/A
3:20 AM52 °FPartly cloudy.2 mph88%30.04 "HgN/A
2:50 AM52 °FPartly cloudy.3 mph88%30.04 "HgN/A
2:20 AM52 °FPartly cloudy.3 mph88%30.04 "HgN/A
1:50 AM52 °FPartly cloudy.1 mph88%30.07 "HgN/A
1:20 AM52 °FPartly cloudy.2 mph94%30.07 "HgN/A
12:50 AM52 °FPartly cloudy.3 mph94%30.07 "HgN/A
11:50 PM
Sat, Apr 25
54 °FPartly cloudy.5 mph88%30.07 "HgN/A
11:20 PM54 °FPartly cloudy.3 mph88%30.07 "HgN/A
10:50 PM54 °FSprinkles. Partly cloudy.5 mph88%30.09 "HgN/A
10:20 PM55 °FSprinkles. Partly cloudy.5 mph82%30.09 "HgN/A
10:03 PM55 °FSprinkles. Partly cloudy.3 mph77%30.09 "HgN/A
9:50 PM55 °FPartly cloudy.5 mph77%30.09 "HgN/A
9:20 PM55 °FPartly cloudy.2 mph77%30.09 "HgN/A
8:50 PM57 °FBroken clouds.3 mph67%30.07 "HgN/A
8:20 PM59 °FBroken clouds.2 mph63%30.07 "HgN/A
7:50 PM59 °FBroken clouds.1 mph68%30.07 "HgN/A
7:20 PM61 °FBroken clouds.2 mph59%30.07 "HgN/A
Weather by CustomWeather, © 2015

See weather overviewHow to use our weather pages